{"data":{"norad_id":59104,"epoch":"2026-05-24T22:17:41.559072Z","epoch_age_seconds":87983,"freshness":"FRESH","line1":"1 59104U 24043G   26144.92895323  .00001831  00000+0  16386-3 0  9999","line2":"2 59104  97.8373 275.5458 0007549 114.5995 245.6013 14.97089182121175","mean_motion":14.97089182,"eccentricity":0.0007549,"inclination_deg":97.8373,"raan_deg":275.5458,"arg_perigee_deg":114.5995,"mean_anomaly_deg":245.6013,"bstar":0.00016386,"rev_number":12117,"period_min":96.186654563642,"perigee_km":570.64606898974,"apogee_km":581.14526751227,"semimajor_km":6954.032668251,"source":"CELESTRAK","updated_at":"2026-05-25T13:38:01.190384Z"}}